Time,TemperatureF,DewpointF,PressureIn,WindDirection,WindDirectionDegrees,WindSpeedMPH,WindSpeedGustMPH,Humidity,HourlyPrecipIn,Conditions,Clouds,dailyrainin,SoftwareType,DateUTC
2012-03-08 00:00:00,68.4,51.6,29.97,SE,126,0.0,0.0,55,0.00,,,0.00,VWS V13.01,2012-03-08 06:00:00,
2012-03-08 00:05:00,68.2,51.4,29.97,ESE,123,2.7,2.7,55,0.00,,,0.00,VWS V13.01,2012-03-08 06:05:00,
2012-03-08 00:10:00,68.2,51.9,29.97,South,175,4.0,4.0,56,0.00,,,0.00,VWS V13.01,2012-03-08 06:10:00,
2012-03-08 00:15:00,68.4,52.1,29.97,SE,124,4.0,4.0,56,0.00,,,0.00,VWS V13.01,2012-03-08 06:15:00,
2012-03-08 00:20:00,68.4,52.1,29.97,SE,125,2.7,4.5,56,0.00,,,0.00,VWS V13.01,2012-03-08 06:20:00,
2012-03-08 00:25:00,68.4,52.5,29.97,ESE,122,4.0,4.9,57,0.00,,,0.00,VWS V13.01,2012-03-08 06:25:00,
2012-03-08 00:31:00,68.4,52.5,29.94,East,97,3.1,4.0,57,0.00,,,0.00,VWS V13.01,2012-03-08 06:31:00,
2012-03-08 00:36:00,68.4,52.5,29.94,ESE,120,7.2,7.2,57,0.00,,,0.00,VWS V13.01,2012-03-08 06:36:00,
2012-03-08 00:41:00,68.4,53.0,29.94,ESE,107,5.4,6.3,58,0.00,,,0.00,VWS V13.01,2012-03-08 06:41:00,
2012-03-08 00:46:00,68.5,53.2,29.97,ESE,112,7.6,7.6,58,0.00,,,0.00,VWS V13.01,2012-03-08 06:46:00,
2012-03-08 00:51:00,68.5,53.7,29.97,ESE,119,5.8,6.3,59,0.00,,,0.00,VWS V13.01,2012-03-08 06:51:00,
2012-03-08 00:56:00,68.4,53.5,29.97,ESE,102,2.2,4.0,59,0.00,,,0.00,VWS V13.01,2012-03-08 06:56:00,
2012-03-08 01:01:00,68.4,54.0,29.97,SE,127,5.8,5.8,60,0.00,,,0.00,VWS V13.01,2012-03-08 07:01:00,
2012-03-08 01:06:00,68.2,54.2,29.97,ESE,120,3.1,5.4,61,0.00,,,0.00,VWS V13.01,2012-03-08 07:06:00,
2012-03-08 01:11:00,68.0,54.5,29.97,East,81,3.1,4.0,62,0.00,,,0.00,VWS V13.01,2012-03-08 07:11:00,
2012-03-08 01:16:00,67.8,54.8,29.97,SE,135,2.7,4.0,63,0.00,,,0.00,VWS V13.01,2012-03-08 07:16:00,
2012-03-08 01:20:00,67.6,55.5,29.97,ESE,108,5.4,6.3,65,0.00,,,0.00,VWS V13.01,2012-03-08 07:20:00,
2012-03-08 01:26:00,67.5,56.1,29.97,East,97,4.0,4.9,67,0.00,,,0.00,VWS V13.01,2012-03-08 07:26:00,
2012-03-08 01:30:00,67.1,57.0,29.97,East,95,5.8,5.8,70,0.00,,,0.00,VWS V13.01,2012-03-08 07:30:00,
2012-03-08 01:35:00,66.7,57.4,29.97,ESE,102,4.0,4.0,72,0.00,,,0.00,VWS V13.01,2012-03-08 07:35:00,
2012-03-08 01:36:00,66.7,57.4,29.97,ESE,108,3.1,4.0,72,0.00,,,0.00,VWS V13.01,2012-03-08 07:36:00,
2012-03-08 01:41:00,66.4,58.2,29.97,East,89,3.1,4.0,75,0.00,,,0.00,VWS V13.01,2012-03-08 07:41:00,
2012-03-08 01:46:00,65.8,58.8,29.97,ENE,75,7.2,7.2,78,0.00,,,0.00,VWS V13.01,2012-03-08 07:46:00,
2012-03-08 01:51:00,65.5,59.2,29.97,East,80,3.1,4.9,80,0.00,,,0.00,VWS V13.01,2012-03-08 07:51:00,
2012-03-08 01:56:00,65.1,59.2,29.97,ESE,121,2.7,3.1,81,0.00,,,0.00,VWS V13.01,2012-03-08 07:56:00,
2012-03-08 02:01:00,64.8,59.5,29.97,ESE,119,3.1,4.9,83,0.00,,,0.00,VWS V13.01,2012-03-08 08:01:00,
2012-03-08 02:06:00,64.8,59.8,29.97,NE,55,7.6,7.6,84,0.00,,,0.00,VWS V13.01,2012-03-08 08:06:00,
2012-03-08 02:11:00,64.6,60.0,29.97,East,95,4.0,6.3,85,0.00,,,0.00,VWS V13.01,2012-03-08 08:11:00,
2012-03-08 02:16:00,64.4,59.8,29.97,East,101,2.7,3.1,85,0.00,,,0.00,VWS V13.01,2012-03-08 08:16:00,
2012-03-08 02:21:00,64.4,60.1,29.97,East,82,2.7,3.6,86,0.00,,,0.00,VWS V13.01,2012-03-08 08:21:00,
2012-03-08 02:26:00,64.4,60.5,29.97,ESE,119,4.9,5.8,87,0.00,,,0.00,VWS V13.01,2012-03-08 08:26:00,
2012-03-08 02:31:00,64.2,60.6,29.97,ENE,63,0.0,0.0,88,0.00,,,0.00,VWS V13.01,2012-03-08 08:31:00,
2012-03-08 02:36:00,64.0,60.7,29.97,East,83,5.4,5.4,89,0.00,,,0.00,VWS V13.01,2012-03-08 08:36:00,
2012-03-08 02:41:00,63.9,61.5,29.97,ENE,59,2.2,3.1,92,0.00,,,0.00,VWS V13.01,2012-03-08 08:41:00,
2012-03-08 02:46:00,63.5,61.8,29.94,NE,38,4.0,4.0,94,0.00,,,0.00,VWS V13.01,2012-03-08 08:46:00,
2012-03-08 02:51:00,63.1,62.3,29.94,NE,35,0.0,0.0,97,0.00,,,0.00,VWS V13.01,2012-03-08 08:51:00,
2012-03-08 02:56:00,63.0,62.7,29.94,NNE,24,0.0,0.0,99,0.00,,,0.00,VWS V13.01,2012-03-08 08:56:00,
2012-03-08 03:01:00,63.0,63.0,29.94,NNE,25,0.0,0.0,100,0.00,,,0.00,VWS V13.01,2012-03-08 09:01:00,
2012-03-08 03:06:00,62.8,62.8,29.94,North,7,0.0,0.0,100,0.00,,,0.00,VWS V13.01,2012-03-08 09:06:00,
2012-03-08 03:11:00,62.6,62.6,29.94,North,8,2.7,2.7,100,0.00,,,0.00,VWS V13.01,2012-03-08 09:11:00,
2012-03-08 03:16:00,62.6,62.6,29.94,NNE,19,0.0,2.7,100,0.00,,,0.00,VWS V13.01,2012-03-08 09:16:00,
2012-03-08 03:21:00,62.4,62.4,29.94,NNE,29,0.0,0.0,100,0.00,,,0.00,VWS V13.01,2012-03-08 09:21:00,
2012-03-08 03:26:00,62.4,62.4,29.94,NNE,29,0.0,0.0,100,0.00,,,0.00,VWS V13.01,2012-03-08 09:26:00,
2012-03-08 03:31:00,62.2,62.2,29.97,NNE,29,0.0,0.0,100,0.00,,,0.00,VWS V13.01,2012-03-08 09:31:00,
2012-03-08 03:36:00,62.2,62.2,29.97,NNE,14,0.0,0.0,100,0.00,,,0.00,VWS V13.01,2012-03-08 09:36:00,
2012-03-08 03:41:00,62.2,62.2,29.97,NNW,344,0.0,0.0,100,0.00,,,0.00,VWS V13.01,2012-03-08 09:41:00,
2012-03-08 03:46:00,62.2,62.2,29.97,North,357,0.0,0.0,100,0.00,,,0.00,VWS V13.01,2012-03-08 09:46:00,
2012-03-08 03:51:00,62.2,62.2,29.97,NW,325,2.7,2.7,100,0.00,,,0.00,VWS V13.01,2012-03-08 09:51:00,
2012-03-08 03:56:00,62.4,62.4,29.97,NW,310,0.0,0.0,100,0.00,,,0.00,VWS V13.01,2012-03-08 09:56:00,
2012-03-08 04:01:00,62.4,62.4,29.97,NNW,339,0.0,0.0,100,0.00,,,0.00,VWS V13.01,2012-03-08 10:01:00,
2012-03-08 04:06:00,62.2,62.2,29.97,North,354,0.0,0.0,100,0.00,,,0.00,VWS V13.01,2012-03-08 10:06:00,
2012-03-08 04:11:00,62.2,62.2,29.97,ENE,70,0.0,0.0,100,0.00,,,0.00,VWS V13.01,2012-03-08 10:11:00,
2012-03-08 04:16:00,62.2,62.2,29.97,ENE,67,0.0,0.0,100,0.00,,,0.00,VWS V13.01,2012-03-08 10:16:00,
2012-03-08 04:21:00,62.1,62.1,29.97,ENE,67,0.0,0.0,100,0.00,,,0.00,VWS V13.01,2012-03-08 10:21:00,
2012-03-08 04:26:00,62.1,62.1,29.97,ENE,67,0.0,0.0,100,0.00,,,0.00,VWS V13.01,2012-03-08 10:26:00,
2012-03-08 04:31:00,62.1,62.1,29.97,ENE,68,0.0,0.0,100,0.00,,,0.00,VWS V13.01,2012-03-08 10:31:00,
2012-03-08 04:36:00,62.1,62.1,29.97,East,87,0.0,0.0,100,0.00,,,0.00,VWS V13.01,2012-03-08 10:36:00,
2012-03-08 04:41:00,62.1,62.1,29.97,NE,45,3.1,3.1,100,0.00,,,0.00,VWS V13.01,2012-03-08 10:41:00,
2012-03-08 04:46:00,61.9,61.9,29.97,NE,45,0.0,0.0,100,0.00,,,0.00,VWS V13.01,2012-03-08 10:46:00,
2012-03-08 04:51:00,61.9,61.9,29.97,NE,45,0.0,2.2,100,0.00,,,0.00,VWS V13.01,2012-03-08 10:51:00,
2012-03-08 04:56:00,61.9,61.9,29.97,North,7,0.0,0.0,100,0.00,,,0.00,VWS V13.01,2012-03-08 10:56:00,
2012-03-08 05:01:00,61.9,61.9,29.97,NNW,342,0.0,0.0,100,0.00,,,0.00,VWS V13.01,2012-03-08 11:01:00,
2012-03-08 05:06:00,62.1,62.1,29.97,North,7,2.7,2.7,100,0.00,,,0.00,VWS V13.01,2012-03-08 11:06:00,
2012-03-08 05:11:00,62.1,62.1,29.97,ENE,59,2.7,2.7,100,0.00,,,0.00,VWS V13.01,2012-03-08 11:11:00,
2012-03-08 05:16:00,61.9,61.9,29.97,ENE,59,0.0,0.0,100,0.00,,,0.00,VWS V13.01,2012-03-08 11:16:00,
2012-03-08 05:21:00,61.9,61.9,29.97,NE,49,3.1,3.1,100,0.00,,,0.00,VWS V13.01,2012-03-08 11:21:00,
2012-03-08 05:26:00,61.9,61.9,29.97,NNE,33,0.0,0.0,100,0.00,,,0.00,VWS V13.01,2012-03-08 11:26:00,
2012-03-08 05:31:00,61.9,61.9,29.97,North,11,0.0,0.0,100,0.00,,,0.00,VWS V13.01,2012-03-08 11:31:00,
2012-03-08 05:36:00,61.7,61.7,29.97,North,8,0.0,0.0,100,0.00,,,0.00,VWS V13.01,2012-03-08 11:36:00,
2012-03-08 05:41:00,61.9,61.9,29.97,NNE,22,2.2,2.2,100,0.00,,,0.00,VWS V13.01,2012-03-08 11:41:00,
2012-03-08 05:46:00,61.9,61.9,29.97,NE,40,2.2,2.2,100,0.00,,,0.00,VWS V13.01,2012-03-08 11:46:00,
2012-03-08 05:51:00,61.7,61.7,29.97,NNE,33,2.7,3.1,100,0.00,,,0.00,VWS V13.01,2012-03-08 11:51:00,
2012-03-08 05:56:00,61.7,61.7,29.97,NE,38,4.0,4.0,100,0.00,,,0.00,VWS V13.01,2012-03-08 11:56:00,
2012-03-08 06:01:00,61.5,61.5,29.97,ENE,57,0.0,0.0,100,0.00,,,0.00,VWS V13.01,2012-03-08 12:01:00,
2012-03-08 06:06:00,61.7,61.7,29.97,NNE,28,2.7,3.6,100,0.00,,,0.00,VWS V13.01,2012-03-08 12:06:00,
2012-03-08 06:11:00,61.7,61.7,29.97,North,6,0.0,0.0,100,0.00,,,0.00,VWS V13.01,2012-03-08 12:11:00,
2012-03-08 06:16:00,61.7,61.7,29.97,NW,325,2.7,2.7,100,0.00,,,0.00,VWS V13.01,2012-03-08 12:16:00,
2012-03-08 06:21:00,61.7,61.7,29.97,North,4,2.2,2.2,100,0.04,,,0.04,VWS V13.01,2012-03-08 12:21:00,
2012-03-08 06:26:00,61.7,61.7,29.97,North,4,0.0,0.0,100,0.04,,,0.04,VWS V13.01,2012-03-08 12:26:00,
2012-03-08 06:31:00,61.7,61.7,29.97,NNE,12,0.0,0.0,100,0.04,,,0.04,VWS V13.01,2012-03-08 12:31:00,
2012-03-08 06:36:00,61.7,61.7,29.97,West,267,2.2,2.2,100,0.04,,,0.04,VWS V13.01,2012-03-08 12:36:00,
2012-03-08 06:41:00,61.9,61.9,29.97,NNW,328,2.7,2.7,100,0.08,,,0.08,VWS V13.01,2012-03-08 12:41:00,
2012-03-08 06:46:00,61.9,61.9,29.97,NNW,331,0.0,0.0,100,0.16,,,0.16,VWS V13.01,2012-03-08 12:46:00,
2012-03-08 06:51:00,61.9,61.9,29.97,ENE,62,0.0,2.2,100,0.20,,,0.20,VWS V13.01,2012-03-08 12:51:00,
2012-03-08 06:56:00,61.9,61.9,29.97,South,180,5.8,6.3,100,0.24,,,0.24,VWS V13.01,2012-03-08 12:56:00,
2012-03-08 07:01:00,61.9,61.9,29.97,SSE,158,3.6,3.6,100,0.24,,,0.24,VWS V13.01,2012-03-08 13:01:00,
2012-03-08 07:06:00,61.9,61.9,29.97,South,182,3.1,3.1,100,0.24,,,0.24,VWS V13.01,2012-03-08 13:06:00,
2012-03-08 07:11:00,61.9,61.9,29.97,SSW,196,0.0,0.0,100,0.24,,,0.24,VWS V13.01,2012-03-08 13:11:00,
2012-03-08 07:16:00,61.9,61.9,29.97,SSW,197,0.0,0.0,100,0.24,,,0.24,VWS V13.01,2012-03-08 13:16:00,
2012-03-08 07:21:00,61.9,61.9,29.97,SSW,196,0.0,0.0,100,0.20,,,0.24,VWS V13.01,2012-03-08 13:21:00,
2012-03-08 07:26:00,61.9,61.9,29.97,NW,308,0.0,0.0,100,0.20,,,0.24,VWS V13.01,2012-03-08 13:26:00,
2012-03-08 07:31:00,61.7,61.7,29.97,ESE,106,3.1,4.5,100,0.20,,,0.24,VWS V13.01,2012-03-08 13:31:00,
2012-03-08 07:36:00,61.9,61.9,29.97,NE,48,0.0,0.0,100,0.20,,,0.24,VWS V13.01,2012-03-08 13:36:00,
2012-03-08 07:42:00,61.9,61.9,29.97,SSW,212,0.0,0.0,100,0.16,,,0.24,VWS V13.01,2012-03-08 13:42:00,
2012-03-08 07:47:00,61.9,61.9,29.97,SSW,212,0.0,0.0,100,0.12,,,0.28,VWS V13.01,2012-03-08 13:47:00,
2012-03-08 07:52:00,61.9,61.9,29.97,SE,131,6.3,6.3,100,0.12,,,0.31,VWS V13.01,2012-03-08 13:52:00,
2012-03-08 07:57:00,61.7,61.7,29.97,North,2,3.1,3.1,100,0.08,,,0.31,VWS V13.01,2012-03-08 13:57:00,
2012-03-08 08:02:00,61.7,61.7,29.97,SSE,166,2.7,3.1,100,0.12,,,0.35,VWS V13.01,2012-03-08 14:02:00,
2012-03-08 08:07:00,61.5,61.5,29.97,SE,135,3.1,4.5,100,0.12,,,0.35,VWS V13.01,2012-03-08 14:07:00,
2012-03-08 08:12:00,61.3,61.3,29.97,East,82,3.6,3.6,100,0.12,,,0.35,VWS V13.01,2012-03-08 14:12:00,
2012-03-08 08:16:00,61.3,61.3,29.97,East,82,0.0,0.0,100,0.12,,,0.35,VWS V13.01,2012-03-08 14:16:00,
2012-03-08 08:21:00,61.3,61.3,29.97,East,82,0.0,0.0,100,0.12,,,0.35,VWS V13.01,2012-03-08 14:21:00,
2012-03-08 08:27:00,61.3,61.3,29.97,East,82,0.0,0.0,100,0.12,,,0.35,VWS V13.01,2012-03-08 14:27:00,
2012-03-08 08:32:00,61.3,61.3,29.97,NNW,327,0.0,0.0,100,0.12,,,0.35,VWS V13.01,2012-03-08 14:32:00,
2012-03-08 08:37:00,61.3,61.3,29.97,NNW,327,0.0,0.0,100,0.12,,,0.35,VWS V13.01,2012-03-08 14:37:00,
2012-03-08 08:42:00,61.3,61.3,29.97,WSW,258,2.2,2.7,100,0.12,,,0.35,VWS V13.01,2012-03-08 14:42:00,
2012-03-08 08:47:00,61.3,61.3,29.97,WNW,284,2.7,3.6,100,0.08,,,0.35,VWS V13.01,2012-03-08 14:47:00,
2012-03-08 08:52:00,61.3,61.3,29.97,WNW,301,4.9,4.9,100,0.04,,,0.35,VWS V13.01,2012-03-08 14:52:00,
2012-03-08 08:57:00,60.4,60.4,29.97,NNW,333,8.7,17.0,100,0.04,,,0.35,VWS V13.01,2012-03-08 14:57:00,
2012-03-08 09:02:00,59.2,55.6,30.00,NW,314,8.7,8.7,88,0.00,,,0.35,VWS V13.01,2012-03-08 15:02:00,
2012-03-08 09:07:00,57.6,52.1,30.00,NNW,341,8.3,10.5,82,0.00,,,0.35,VWS V13.01,2012-03-08 15:07:00,
2012-03-08 09:12:00,56.3,51.5,30.00,North,5,5.4,5.8,84,0.00,,,0.35,VWS V13.01,2012-03-08 15:12:00,
2012-03-08 09:17:00,55.8,52.0,30.00,NNW,330,8.1,8.1,87,0.08,,,0.43,VWS V13.01,2012-03-08 15:17:00,
2012-03-08 09:22:00,55.0,52.8,30.00,NW,319,8.3,8.3,92,0.16,,,0.51,VWS V13.01,2012-03-08 15:22:00,
2012-03-08 09:27:00,53.6,51.0,30.00,NE,44,8.3,25.5,91,0.24,,,0.59,VWS V13.01,2012-03-08 15:27:00,
2012-03-08 09:32:00,52.7,49.8,30.03,NW,323,15.0,15.4,90,0.31,,,0.67,VWS V13.01,2012-03-08 15:32:00,
2012-03-08 09:37:00,52.5,49.7,30.03,NNW,335,5.4,14.5,90,0.39,,,0.75,VWS V13.01,2012-03-08 15:37:00,
2012-03-08 09:42:00,52.0,49.4,30.03,NNW,342,11.0,11.0,91,0.39,,,0.75,VWS V13.01,2012-03-08 15:42:00,
2012-03-08 09:47:00,52.2,49.9,30.03,ENE,57,19.2,19.2,92,0.39,,,0.75,VWS V13.01,2012-03-08 15:47:00,
2012-03-08 09:52:00,52.2,50.5,30.03,NNE,13,4.0,6.3,94,0.39,,,0.75,VWS V13.01,2012-03-08 15:52:00,
2012-03-08 09:57:00,52.0,49.4,30.03,NNE,26,5.8,12.3,91,0.43,,,0.79,VWS V13.01,2012-03-08 15:57:00,
2012-03-08 10:02:00,51.6,50.2,30.06,NNW,343,5.8,5.8,95,0.43,,,0.79,VWS V13.01,2012-03-08 16:02:00,
2012-03-08 10:07:00,51.6,48.8,30.06,NNW,348,10.5,12.8,90,0.43,,,0.83,VWS V13.01,2012-03-08 16:07:00,
2012-03-08 10:12:00,51.8,48.1,30.06,NNW,347,12.8,12.8,87,0.47,,,0.83,VWS V13.01,2012-03-08 16:12:00,
2012-03-08 10:17:00,51.6,49.4,30.03,NNE,25,7.2,8.7,92,0.47,,,0.83,VWS V13.01,2012-03-08 16:17:00,
2012-03-08 10:22:00,51.4,48.6,30.03,NNW,333,4.0,12.8,90,0.35,,,0.83,VWS V13.01,2012-03-08 16:22:00,
2012-03-08 10:27:00,51.3,48.4,30.03,NW,317,4.0,8.3,90,0.24,,,0.83,VWS V13.01,2012-03-08 16:27:00,
2012-03-08 10:32:00,51.3,48.7,30.06,NNE,23,7.2,8.3,91,0.20,,,0.87,VWS V13.01,2012-03-08 16:32:00,
2012-03-08 10:37:00,51.1,49.1,30.06,NE,38,3.6,4.9,93,0.16,,,0.91,VWS V13.01,2012-03-08 16:37:00,
2012-03-08 10:42:00,51.1,49.1,30.06,NE,44,8.1,8.1,93,0.16,,,0.91,VWS V13.01,2012-03-08 16:42:00,
2012-03-08 10:47:00,50.9,48.7,30.06,NW,324,4.0,7.6,92,0.16,,,0.91,VWS V13.01,2012-03-08 16:47:00,
2012-03-08 10:52:00,50.9,47.5,30.06,WNW,295,5.4,5.4,88,0.16,,,0.91,VWS V13.01,2012-03-08 16:52:00,
2012-03-08 10:57:00,51.1,48.0,30.06,NW,326,5.4,5.4,89,0.16,,,0.91,VWS V13.01,2012-03-08 16:57:00,
2012-03-08 11:02:00,51.1,46.4,30.09,North,5,5.4,5.4,84,0.12,,,0.91,VWS V13.01,2012-03-08 17:02:00,
2012-03-08 11:07:00,50.7,45.8,30.09,NNW,339,4.9,6.3,83,0.12,,,0.91,VWS V13.01,2012-03-08 17:07:00,
2012-03-08 11:12:00,50.7,46.1,30.09,ENE,57,3.6,4.0,84,0.08,,,0.91,VWS V13.01,2012-03-08 17:12:00,
2012-03-08 11:17:00,50.5,45.9,30.12,ENE,70,5.4,6.3,84,0.08,,,0.91,VWS V13.01,2012-03-08 17:17:00,
2012-03-08 11:23:00,50.2,45.5,30.12,North,11,6.3,7.6,84,0.12,,,0.94,VWS V13.01,2012-03-08 17:23:00,
2012-03-08 11:28:00,50.0,44.7,30.12,NNE,30,15.0,15.0,82,0.12,,,0.94,VWS V13.01,2012-03-08 17:28:00,
2012-03-08 11:33:00,50.0,44.7,30.12,NE,56,10.1,12.8,82,0.08,,,0.94,VWS V13.01,2012-03-08 17:33:00,
2012-03-08 11:38:00,50.0,45.7,30.12,North,4,5.4,5.4,85,0.04,,,0.94,VWS V13.01,2012-03-08 17:38:00,
2012-03-08 11:43:00,49.5,45.5,30.12,North,1,4.0,8.7,86,0.04,,,0.94,VWS V13.01,2012-03-08 17:43:00,
2012-03-08 11:48:00,49.5,45.8,30.12,NNE,26,4.0,6.3,87,0.04,,,0.94,VWS V13.01,2012-03-08 17:48:00,
2012-03-08 11:53:00,49.6,45.0,30.12,NNW,348,4.9,5.4,84,0.04,,,0.94,VWS V13.01,2012-03-08 17:53:00,
2012-03-08 11:58:00,49.8,44.5,30.12,NNW,341,5.4,5.4,82,0.04,,,0.94,VWS V13.01,2012-03-08 17:58:00,
2012-03-08 12:03:00,49.6,44.4,30.12,NNE,28,6.3,6.7,82,0.08,,,0.98,VWS V13.01,2012-03-08 18:03:00,
2012-03-08 12:08:00,49.1,44.2,30.12,NE,44,3.1,6.3,83,0.08,,,0.98,VWS V13.01,2012-03-08 18:08:00,
2012-03-08 12:13:00,49.1,43.8,30.12,NW,305,8.1,8.1,82,0.08,,,0.98,VWS V13.01,2012-03-08 18:13:00,
2012-03-08 12:18:00,49.3,42.7,30.15,NNW,329,7.6,8.3,78,0.08,,,0.98,VWS V13.01,2012-03-08 18:18:00,
2012-03-08 12:22:00,48.9,42.0,30.15,NW,321,8.1,8.3,77,0.04,,,0.98,VWS V13.01,2012-03-08 18:22:00,
2012-03-08 12:28:00,48.7,43.8,30.15,NNE,25,5.4,6.7,83,0.04,,,0.98,VWS V13.01,2012-03-08 18:28:00,
2012-03-08 12:33:00,48.7,44.8,30.12,ENE,61,2.2,4.9,86,0.04,,,0.98,VWS V13.01,2012-03-08 18:33:00,
2012-03-08 12:38:00,48.2,44.8,30.12,North,355,0.0,3.1,88,0.04,,,0.98,VWS V13.01,2012-03-08 18:38:00,
2012-03-08 12:43:00,48.4,45.3,30.12,NW,315,3.1,3.1,89,0.08,,,1.02,VWS V13.01,2012-03-08 18:43:00,
2012-03-08 12:48:00,48.2,46.0,30.15,NNW,340,2.7,3.1,92,0.08,,,1.02,VWS V13.01,2012-03-08 18:48:00,
2012-03-08 12:53:00,48.0,46.1,30.15,SW,236,0.0,0.0,93,0.08,,,1.02,VWS V13.01,2012-03-08 18:53:00,
2012-03-08 12:58:00,47.8,45.9,30.15,SW,223,0.0,0.0,93,0.08,,,1.02,VWS V13.01,2012-03-08 18:58:00,
2012-03-08 13:03:00,47.7,45.7,30.18,WSW,253,0.0,0.0,93,0.04,,,1.02,VWS V13.01,2012-03-08 19:03:00,
2012-03-08 13:08:00,47.8,46.5,30.18,WSW,257,2.7,4.9,95,0.04,,,1.02,VWS V13.01,2012-03-08 19:08:00,
2012-03-08 13:13:00,47.3,44.5,30.18,NNE,20,5.8,5.8,90,0.08,,,1.06,VWS V13.01,2012-03-08 19:13:00,
2012-03-08 13:18:00,47.3,45.7,30.12,NNW,332,8.3,8.3,94,0.08,,,1.06,VWS V13.01,2012-03-08 19:18:00,
2012-03-08 13:23:00,46.9,43.0,30.12,North,349,8.1,8.1,86,0.08,,,1.06,VWS V13.01,2012-03-08 19:23:00,
2012-03-08 13:28:00,46.8,42.5,30.12,NW,313,8.3,8.3,85,0.08,,,1.06,VWS V13.01,2012-03-08 19:28:00,
2012-03-08 13:33:00,46.6,42.6,30.15,NNW,328,4.9,6.3,86,0.08,,,1.06,VWS V13.01,2012-03-08 19:33:00,
2012-03-08 13:38:00,46.4,42.1,30.15,NNW,345,6.3,6.3,85,0.12,,,1.10,VWS V13.01,2012-03-08 19:38:00,
2012-03-08 13:43:00,46.2,41.7,30.15,NNW,333,5.8,5.8,84,0.08,,,1.10,VWS V13.01,2012-03-08 19:43:00,
2012-03-08 13:48:00,46.2,41.0,30.15,ENE,60,5.8,8.1,82,0.08,,,1.10,VWS V13.01,2012-03-08 19:48:00,
2012-03-08 13:53:00,46.0,41.2,30.15,NNW,336,6.3,6.3,83,0.08,,,1.10,VWS V13.01,2012-03-08 19:53:00,
2012-03-08 13:58:00,46.4,42.5,30.15,WNW,287,3.6,7.6,86,0.08,,,1.10,VWS V13.01,2012-03-08 19:58:00,
2012-03-08 14:03:00,46.0,41.2,30.18,NW,320,8.3,9.6,83,0.08,,,1.10,VWS V13.01,2012-03-08 20:03:00,
2012-03-08 14:08:00,46.2,41.7,30.18,SW,214,5.8,6.3,84,0.08,,,1.10,VWS V13.01,2012-03-08 20:08:00,
2012-03-08 14:13:00,46.2,41.7,30.18,North,350,5.8,5.8,84,0.04,,,1.10,VWS V13.01,2012-03-08 20:13:00,
2012-03-08 14:18:00,46.0,41.2,30.21,NNW,344,4.9,7.6,83,0.04,,,1.10,VWS V13.01,2012-03-08 20:18:00,
2012-03-08 14:23:00,45.7,42.0,30.21,North,360,0.0,4.0,87,0.08,,,1.14,VWS V13.01,2012-03-08 20:23:00,
2012-03-08 14:28:00,45.1,42.4,30.21,NNE,14,5.4,5.4,90,0.08,,,1.14,VWS V13.01,2012-03-08 20:28:00,
2012-03-08 14:33:00,44.8,42.0,30.18,NE,43,8.3,10.5,90,0.08,,,1.14,VWS V13.01,2012-03-08 20:33:00,
2012-03-08 14:38:00,44.8,41.5,30.18,NW,310,5.4,5.4,88,0.04,,,1.14,VWS V13.01,2012-03-08 20:38:00,
2012-03-08 14:43:00,45.0,41.6,30.18,NNW,340,4.0,4.0,88,0.04,,,1.14,VWS V13.01,2012-03-08 20:43:00,
2012-03-08 14:48:00,45.0,42.5,30.21,North,10,2.7,2.7,91,0.04,,,1.14,VWS V13.01,2012-03-08 20:48:00,
2012-03-08 14:53:00,45.0,42.5,30.21,NNW,339,3.6,4.0,91,0.04,,,1.14,VWS V13.01,2012-03-08 20:53:00,
2012-03-08 14:58:00,44.8,42.6,30.21,NNW,342,2.7,5.4,92,0.12,,,1.22,VWS V13.01,2012-03-08 20:58:00,
2012-03-08 15:03:00,44.8,42.3,30.18,NNW,336,0.0,0.0,91,0.12,,,1.22,VWS V13.01,2012-03-08 21:03:00,
2012-03-08 15:08:00,44.6,41.0,30.18,NE,50,5.4,5.8,87,0.12,,,1.22,VWS V13.01,2012-03-08 21:08:00,
2012-03-08 15:13:00,45.0,40.1,30.21,ENE,71,4.5,7.6,83,0.12,,,1.22,VWS V13.01,2012-03-08 21:13:00,
2012-03-08 15:18:00,44.8,39.3,30.21,NE,34,5.4,6.3,81,0.12,,,1.22,VWS V13.01,2012-03-08 21:18:00,
2012-03-08 15:23:00,44.4,39.3,30.21,NNE,23,5.8,6.3,82,0.08,,,1.22,VWS V13.01,2012-03-08 21:23:00,
2012-03-08 15:28:00,44.1,38.3,30.21,North,11,7.6,7.6,80,0.08,,,1.22,VWS V13.01,2012-03-08 21:28:00,
2012-03-08 15:33:00,43.9,38.1,30.21,NNW,336,5.8,5.8,80,0.08,,,1.22,VWS V13.01,2012-03-08 21:33:00,
2012-03-08 15:39:00,43.7,39.5,30.21,North,7,5.8,6.3,85,0.08,,,1.22,VWS V13.01,2012-03-08 21:39:00,
2012-03-08 15:44:00,43.5,38.7,30.21,North,350,2.7,2.7,83,0.08,,,1.22,VWS V13.01,2012-03-08 21:44:00,
2012-03-08 15:50:00,43.5,39.9,30.24,NE,47,4.0,4.0,87,0.08,,,1.26,VWS V13.01,2012-03-08 21:50:00,
2012-03-08 15:55:00,43.5,39.9,30.24,ENE,62,4.0,4.0,87,0.12,,,1.26,VWS V13.01,2012-03-08 21:55:00,
2012-03-08 15:59:00,43.5,40.2,30.21,NNE,33,0.0,2.2,88,0.04,,,1.26,VWS V13.01,2012-03-08 21:59:00,
2012-03-08 16:04:00,43.3,40.3,30.21,NNE,32,0.0,0.0,89,0.04,,,1.26,VWS V13.01,2012-03-08 22:04:00,
2012-03-08 16:09:00,43.3,40.3,30.21,WSW,241,0.0,0.0,89,0.04,,,1.26,VWS V13.01,2012-03-08 22:09:00,
2012-03-08 16:14:00,43.3,40.0,30.21,West,263,0.0,0.0,88,0.04,,,1.26,VWS V13.01,2012-03-08 22:14:00,
2012-03-08 16:19:00,43.5,40.5,30.21,NNW,340,3.6,3.6,89,0.04,,,1.26,VWS V13.01,2012-03-08 22:19:00,
2012-03-08 16:24:00,43.2,38.7,30.21,NE,55,0.0,0.0,84,0.04,,,1.26,VWS V13.01,2012-03-08 22:24:00,
2012-03-08 16:30:00,42.8,37.1,30.24,NE,34,6.3,7.6,80,0.08,,,1.30,VWS V13.01,2012-03-08 22:30:00,
2012-03-08 16:35:00,42.6,38.7,30.24,NE,46,3.1,4.0,86,0.08,,,1.30,VWS V13.01,2012-03-08 22:35:00,
2012-03-08 16:40:00,42.4,38.8,30.24,ENE,76,0.0,3.1,87,0.08,,,1.30,VWS V13.01,2012-03-08 22:40:00,
2012-03-08 16:45:00,42.1,38.5,30.24,North,6,2.2,2.7,87,0.08,,,1.30,VWS V13.01,2012-03-08 22:45:00,
2012-03-08 16:50:00,42.4,39.1,30.24,North,8,3.1,3.6,88,0.08,,,1.30,VWS V13.01,2012-03-08 22:50:00,
2012-03-08 16:55:00,42.4,39.7,30.24,NNE,17,3.1,3.6,90,0.04,,,1.30,VWS V13.01,2012-03-08 22:55:00,
2012-03-08 16:59:00,42.4,38.3,30.24,ENE,57,2.2,4.9,85,0.04,,,1.30,VWS V13.01,2012-03-08 22:59:00,
2012-03-08 17:04:00,42.6,39.6,30.24,ENE,70,2.7,2.7,89,0.04,,,1.30,VWS V13.01,2012-03-08 23:04:00,
2012-03-08 17:09:00,42.6,40.7,30.24,NE,41,0.0,0.0,93,0.04,,,1.30,VWS V13.01,2012-03-08 23:09:00,
2012-03-08 17:15:00,42.6,40.5,30.21,NW,326,0.0,0.0,92,0.04,,,1.30,VWS V13.01,2012-03-08 23:15:00,
2012-03-08 17:19:00,42.6,38.7,30.21,East,86,3.1,4.0,86,0.04,,,1.30,VWS V13.01,2012-03-08 23:19:00,
2012-03-08 17:24:00,42.8,38.0,30.21,NE,51,0.0,0.0,83,0.04,,,1.30,VWS V13.01,2012-03-08 23:24:00,
2012-03-08 17:29:00,42.8,37.7,30.24,West,263,2.7,2.7,82,0.00,,,1.30,VWS V13.01,2012-03-08 23:29:00,
2012-03-08 17:34:00,43.0,37.9,30.24,WNW,286,0.0,0.0,82,0.00,,,1.30,VWS V13.01,2012-03-08 23:34:00,
2012-03-08 17:40:00,43.0,37.9,30.24,WNW,287,0.0,0.0,82,0.00,,,1.30,VWS V13.01,2012-03-08 23:40:00,
2012-03-08 17:45:00,42.8,37.1,30.27,NE,48,4.9,4.9,80,0.00,,,1.30,VWS V13.01,2012-03-08 23:45:00,
2012-03-08 17:50:00,43.0,34.6,30.27,North,2,2.7,2.7,72,0.00,,,1.30,VWS V13.01,2012-03-08 23:50:00,
2012-03-08 17:55:00,42.8,35.8,30.27,NNE,25,4.9,4.9,76,0.00,,,1.30,VWS V13.01,2012-03-08 23:55:00,
2012-03-08 18:00:00,42.4,36.1,30.27,NNE,25,3.1,4.0,78,0.00,,,1.30,VWS V13.01,2012-03-09 00:00:00,
2012-03-08 18:05:00,42.3,35.6,30.27,North,357,2.2,2.2,77,0.00,,,1.30,VWS V13.01,2012-03-09 00:05:00,
2012-03-08 18:10:00,42.1,36.4,30.27,NE,34,4.9,4.9,80,0.00,,,1.30,VWS V13.01,2012-03-09 00:10:00,
2012-03-08 18:15:00,41.9,35.2,30.24,NE,35,6.3,6.3,77,0.00,,,1.30,VWS V13.01,2012-03-09 00:15:00,
2012-03-08 18:20:00,41.9,34.2,30.24,NE,44,5.4,8.3,74,0.00,,,1.30,VWS V13.01,2012-03-09 00:20:00,
2012-03-08 18:25:00,41.7,33.4,30.24,NE,47,8.1,8.1,72,0.00,,,1.30,VWS V13.01,2012-03-09 00:25:00,
2012-03-08 18:30:00,41.7,32.3,30.27,ENE,60,2.7,5.8,69,0.00,,,1.30,VWS V13.01,2012-03-09 00:30:00,
2012-03-08 18:35:00,41.9,32.1,30.27,ESE,122,0.0,2.7,68,0.00,,,1.30,VWS V13.01,2012-03-09 00:35:00,
2012-03-08 18:40:00,42.1,32.3,30.27,East,84,4.9,5.8,68,0.00,,,1.30,VWS V13.01,2012-03-09 00:40:00,
2012-03-08 18:44:00,41.9,32.8,30.30,SE,128,3.1,3.6,70,0.00,,,1.30,VWS V13.01,2012-03-09 00:44:00,
2012-03-08 18:49:00,42.1,34.4,30.30,SSE,167,4.9,6.3,74,0.00,,,1.30,VWS V13.01,2012-03-09 00:49:00,
2012-03-08 18:54:00,42.1,33.7,30.30,ENE,62,5.8,5.8,72,0.00,,,1.30,VWS V13.01,2012-03-09 00:54:00,
2012-03-08 18:59:00,42.1,34.1,30.33,NE,53,0.0,4.0,73,0.00,,,1.30,VWS V13.01,2012-03-09 00:59:00,
2012-03-08 19:04:00,41.9,32.1,30.33,NE,34,4.0,4.9,68,0.00,,,1.30,VWS V13.01,2012-03-09 01:04:00,
2012-03-08 19:09:00,41.7,33.4,30.33,NE,40,8.1,8.1,72,0.00,,,1.30,VWS V13.01,2012-03-09 01:09:00,
2012-03-08 19:14:00,41.5,33.5,30.30,NE,44,4.9,4.9,73,0.00,,,1.30,VWS V13.01,2012-03-09 01:14:00,
2012-03-08 19:19:00,41.4,33.0,30.30,NNE,32,5.4,6.3,72,0.00,,,1.30,VWS V13.01,2012-03-09 01:19:00,
2012-03-08 19:24:00,41.2,33.2,30.30,NE,49,4.0,4.5,73,0.00,,,1.30,VWS V13.01,2012-03-09 01:24:00,
2012-03-08 19:29:00,41.2,33.5,30.36,SSE,151,2.7,2.7,74,0.00,,,1.30,VWS V13.01,2012-03-09 01:29:00,
2012-03-08 19:34:00,41.2,33.9,30.36,SSE,162,0.0,0.0,75,0.00,,,1.30,VWS V13.01,2012-03-09 01:34:00,
2012-03-08 19:40:00,41.4,35.3,30.36,NNE,33,3.6,3.6,79,0.00,,,1.30,VWS V13.01,2012-03-09 01:40:00,
2012-03-08 19:45:00,41.2,36.4,30.36,NNE,13,0.0,0.0,83,0.00,,,1.30,VWS V13.01,2012-03-09 01:45:00,
2012-03-08 19:50:00,41.2,36.4,30.36,NW,307,0.0,0.0,83,0.00,,,1.30,VWS V13.01,2012-03-09 01:50:00,
2012-03-08 19:55:00,41.2,36.1,30.36,WNW,291,0.0,0.0,82,0.00,,,1.30,VWS V13.01,2012-03-09 01:55:00,
2012-03-08 20:00:00,41.2,36.1,30.36,WNW,291,0.0,0.0,82,0.00,,,1.30,VWS V13.01,2012-03-09 02:00:00,
2012-03-08 20:05:00,41.2,36.4,30.36,NNE,20,0.0,0.0,83,0.00,,,1.30,VWS V13.01,2012-03-09 02:05:00,
2012-03-08 20:10:00,41.2,35.2,30.36,NNW,346,2.7,3.1,79,0.00,,,1.30,VWS V13.01,2012-03-09 02:10:00,
2012-03-08 20:15:00,41.2,36.4,30.36,NNW,340,2.7,2.7,83,0.00,,,1.30,VWS V13.01,2012-03-09 02:15:00,
2012-03-08 20:20:00,41.0,36.2,30.36,North,355,4.0,4.9,83,0.00,,,1.30,VWS V13.01,2012-03-09 02:20:00,
2012-03-08 20:25:00,41.2,31.8,30.36,North,356,4.0,5.8,69,0.00,,,1.30,VWS V13.01,2012-03-09 02:25:00,
2012-03-08 20:30:00,41.2,30.3,30.33,NNE,14,3.6,6.3,65,0.00,,,1.30,VWS V13.01,2012-03-09 02:30:00,
2012-03-08 20:35:00,41.2,28.0,30.33,NNE,19,5.4,6.3,59,0.00,,,1.30,VWS V13.01,2012-03-09 02:35:00,
2012-03-08 20:36:00,41.4,28.5,30.33,NNE,19,3.6,3.6,60,0.00,,,1.30,VWS V13.01,2012-03-09 02:36:00,
2012-03-08 20:41:00,41.4,28.9,30.33,NW,320,3.1,3.1,61,0.00,,,1.30,VWS V13.01,2012-03-09 02:41:00,
2012-03-08 20:46:00,41.4,28.5,30.33,NE,41,0.0,0.0,60,0.00,,,1.30,VWS V13.01,2012-03-09 02:46:00,
2012-03-08 20:51:00,41.2,27.5,30.33,North,9,5.8,5.8,58,0.00,,,1.30,VWS V13.01,2012-03-09 02:51:00,
2012-03-08 20:56:00,41.5,29.1,30.33,NE,43,4.0,4.0,61,0.00,,,1.30,VWS V13.01,2012-03-09 02:56:00,
2012-03-08 21:01:00,41.2,28.4,30.33,NE,52,0.0,0.0,60,0.00,,,1.30,VWS V13.01,2012-03-09 03:01:00,
2012-03-08 21:06:00,41.2,28.8,30.33,NNW,329,0.0,0.0,61,0.00,,,1.30,VWS V13.01,2012-03-09 03:06:00,
2012-03-08 21:11:00,41.2,27.5,30.33,NNE,21,4.0,4.0,58,0.00,,,1.30,VWS V13.01,2012-03-09 03:11:00,
2012-03-08 21:16:00,41.5,26.6,30.33,NW,326,5.4,5.4,55,0.00,,,1.30,VWS V13.01,2012-03-09 03:16:00,
2012-03-08 21:21:00,42.1,26.2,30.33,NNE,32,5.8,6.3,53,0.00,,,1.30,VWS V13.01,2012-03-09 03:21:00,
2012-03-08 21:26:00,42.1,27.1,30.33,NE,40,2.2,2.2,55,0.00,,,1.30,VWS V13.01,2012-03-09 03:26:00,
2012-03-08 21:31:00,41.9,26.9,30.36,ENE,60,0.0,2.7,55,0.00,,,1.30,VWS V13.01,2012-03-09 03:31:00,
2012-03-08 21:36:00,41.7,27.6,30.36,NE,56,2.7,2.7,57,0.00,,,1.30,VWS V13.01,2012-03-09 03:36:00,
2012-03-08 21:41:00,41.7,28.5,30.36,NNW,342,2.2,2.2,59,0.00,,,1.30,VWS V13.01,2012-03-09 03:41:00,
2012-03-08 21:46:00,41.5,27.0,30.33,ENE,73,2.7,2.7,56,0.00,,,1.30,VWS V13.01,2012-03-09 03:46:00,
2012-03-08 21:51:00,41.5,26.1,30.33,North,11,6.3,6.3,54,0.00,,,1.30,VWS V13.01,2012-03-09 03:51:00,
2012-03-08 21:56:00,41.7,27.2,30.33,NE,53,4.9,4.9,56,0.00,,,1.30,VWS V13.01,2012-03-09 03:56:00,
2012-03-08 22:01:00,41.5,27.5,30.33,NE,49,3.6,4.0,57,0.00,,,1.30,VWS V13.01,2012-03-09 04:01:00,
2012-03-08 22:06:00,41.5,26.6,30.33,NNE,25,2.2,2.7,55,0.00,,,1.30,VWS V13.01,2012-03-09 04:06:00,
2012-03-08 22:11:00,41.5,27.0,30.33,NNE,16,2.7,3.1,56,0.00,,,1.30,VWS V13.01,2012-03-09 04:11:00,
2012-03-08 22:16:00,41.5,26.6,30.36,NNE,26,2.7,3.6,55,0.00,,,1.30,VWS V13.01,2012-03-09 04:16:00,
2012-03-08 22:21:00,41.5,27.5,30.36,NNE,26,0.0,0.0,57,0.00,,,1.30,VWS V13.01,2012-03-09 04:21:00,
2012-03-08 22:26:00,41.4,26.9,30.36,North,351,0.0,0.0,56,0.00,,,1.30,VWS V13.01,2012-03-09 04:26:00,
2012-03-08 22:31:00,41.2,27.5,30.36,North,352,0.0,0.0,58,0.00,,,1.30,VWS V13.01,2012-03-09 04:31:00,
2012-03-08 22:36:00,40.8,27.6,30.36,ESE,112,2.7,2.7,59,0.00,,,1.30,VWS V13.01,2012-03-09 04:36:00,
2012-03-08 22:41:00,40.5,30.0,30.36,South,191,0.0,0.0,66,0.00,,,1.30,VWS V13.01,2012-03-09 04:41:00,
2012-03-08 22:46:00,39.9,29.9,30.39,SW,220,0.0,0.0,67,0.00,,,1.30,VWS V13.01,2012-03-09 04:46:00,
2012-03-08 22:51:00,39.7,30.4,30.39,SW,220,0.0,0.0,69,0.00,,,1.30,VWS V13.01,2012-03-09 04:51:00,
2012-03-08 22:56:00,39.9,29.9,30.39,SW,220,0.0,0.0,67,0.00,,,1.30,VWS V13.01,2012-03-09 04:56:00,
2012-03-08 23:00:00,39.7,32.1,30.39,SW,220,0.0,0.0,74,0.00,,,1.30,VWS V13.01,2012-03-09 05:00:00,
2012-03-08 23:05:00,39.7,32.8,30.39,SW,220,0.0,0.0,76,0.00,,,1.30,VWS V13.01,2012-03-09 05:05:00,
2012-03-08 23:10:00,39.4,31.5,30.39,NNW,327,0.0,2.7,73,0.00,,,1.30,VWS V13.01,2012-03-09 05:10:00,
2012-03-08 23:15:00,39.4,31.5,30.39,NNW,327,0.0,0.0,73,0.00,,,1.30,VWS V13.01,2012-03-09 05:15:00,
2012-03-08 23:20:00,39.2,31.0,30.39,NNW,327,0.0,0.0,72,0.00,,,1.30,VWS V13.01,2012-03-09 05:20:00,
2012-03-08 23:25:00,39.2,30.6,30.39,West,275,0.0,0.0,71,0.00,,,1.30,VWS V13.01,2012-03-09 05:25:00,
2012-03-08 23:30:00,38.8,32.3,30.39,West,267,0.0,0.0,77,0.00,,,1.30,VWS V13.01,2012-03-09 05:30:00,
2012-03-08 23:35:00,38.7,31.4,30.39,WNW,287,0.0,0.0,75,0.00,,,1.30,VWS V13.01,2012-03-09 05:35:00,
2012-03-08 23:41:00,38.7,31.8,30.39,NW,313,0.0,0.0,76,0.00,,,1.30,VWS V13.01,2012-03-09 05:41:00,
2012-03-08 23:46:00,38.5,29.9,30.39,NW,324,0.0,0.0,71,0.00,,,1.30,VWS V13.01,2012-03-09 05:46:00,
2012-03-08 23:50:00,38.5,31.9,30.39,North,6,4.0,4.0,77,0.00,,,1.30,VWS V13.01,2012-03-09 05:50:00,
2012-03-08 23:55:00,38.7,32.1,30.39,NNW,348,0.0,0.0,77,0.00,,,1.30,VWS V13.01,2012-03-09 05:55:00,